Location: Marne
(34.0056°N, 117.9064°W)
Time: 15:38:17
(UTC+00:00)

COSMOS 2428 - Pass Details

Date: 18 January 2020
Orbit: 844 x 858 km, 70.9° (Epoch: 24 February)

Event Time Altitude Azimuth Distance (km) Brightness Sun altitude
Rises 02:18:34 0° 340° (NNW) 3,435 5.9 -14.7°
Reaches altitude 10° 02:21:02 10° 341° (NNW) 2,495 5.2 -15.2°
Maximum altitude 02:26:47 80° 68° (ENE) 872 2.6 -16.4°
Drops below altitude 10° 02:32:30 10° 157° (SSE) 2,479 5.0 -17.5°
Sets 02:34:57 0° 158° (SSE) 3,410 5.8 -18.0°
